[[[{"header":{"parameterUnit":"kt","parameterCategory":2,"dx":1,"dy":1,"la1":30.253999710083008,"la2":30.299108505249023,"lo1":-89.0895004272461,"lo2":-89.04439544677734,"nx":28,"ny":28,"refTime":"2022-10-24T21:00:00:Z","depth":"0","parameterNumber":2,"parameterNumberName":"U-component_of_CURRENTS"},"data":[0.4746,0.4685,0.4681,0.4583,0.4588,0.451,0.4522,0.4579,0.4792,0.5082,0.5364,0.5678,0.6266,0.6611,0.6568,0.637,0.5864,0.5631,0.55,0.6115,0.6136,0.6155,0.6092,0.5955,0.5955,0.458,0.4571,0.4564,0.4812,0.4811,0.483,0.4839,0.4813,0.4912,0.5008,0.5005,0.5138,0.5511,0.5756,0.6174,0.6322,0.6494,0.6652,0.6488,0.6078,0.6337,0.5885,0.5725,0.6426,0.637,0.6291,0.6291,0.6291,0.6291,0.6291,0.6291,0.4947,0.4935,0.4982,0.5005,0.506,0.51,0.5105,0.5283,0.5467,0.5714,0.6073,0.6317,0.6641,0.684,0.6777,0.6727,0.657,0.6608,0.6566,0.6262,0.6001,0.6703,0.6737,0.6739,0.674,0.6741,0.6742,0,0.5033,0.5067,0.5109,0.5156,0.5212,0.528,0.5404,0.5481,0.5773,0.5965,0.6257,0.6453,0.6752,0.6842,0.6955,0.6966,0.6654,0.689,0.6836,0.6502,0.6125,0.5941,0.6667,0.6681,0.6682,0.6683,0.6684,0.6684,0.5134,0.5143,0.526,0.5284,0.5358,0.5436,0.5504,0.5729,0.584,0.6202,0.6272,0.6546,0.6736,0.6948,0.7002,0.7053,0.6841,0.6918,0.6813,0.6734,0.6703,0.639,0.6209,0.6698,0.6696,0.6695,0.6694,0,0.5183,0.5292,0.534,0.5479,0.5518,0.5541,0.5734,0.5804,0.6008,0.6182,0.6245,0.6533,0.6719,0.6815,0.6937,0.6915,0.6818,0.697,0.6833,0.6842,0.6753,0.6707,0.6372,0.6159,0.6973,0.6974,0.6974,0,0.5349,0.5361,0.552,0.5547,0.5576,0.5724,0.5795,0.592,0.6111,0.6228,0.6386,0.6519,0.6642,0.6752,0.6772,0.6853,0.6879,0.6823,0.6851,0.6737,0.6729,0.6663,0.661,0.6837,0.6836,0.6836,0.6835,0,0.5448,0.5567,0.5596,0.5646,0.5819,0.5846,0.5927,0.6083,0.6172,0.6346,0.6434,0.6528,0.6615,0.6654,0.6742,0.6715,0.6847,0.6822,0.6827,0.6828,0.6722,0.6713,0.6691,0.6834,0.6834,0.6834,0.6834,0,0.5627,0.5703,0.5746,0.5869,0.5893,0.5938,0.6048,0.6126,0.6281,0.6365,0.645,0.6524,0.658,0.6584,0.6667,0.6656,0.6672,0.6703,0.6708,0.6692,0.6717,0.6651,0.6701,0.6634,0.6769,0.6768,0.6768,0,0.5692,0.5775,0.5895,0.5934,0.5978,0.6108,0.6166,0.6248,0.6347,0.6426,0.6477,0.6536,0.6532,0.6564,0.6584,0.6642,0.665,0.6612,0.6696,0.6698,0.6684,0.6754,0.6633,0.6692,0.6757,0.6758,0.6759,0,0.5746,0.5955,0.5946,0.5988,0.6137,0.6169,0.6245,0.6315,0.6355,0.6433,0.6469,0.6503,0.6535,0.6538,0.6555,0.6576,0.6635,0.6592,0.6594,0.6606,0.6732,0.674,0.6748,0.6672,0.6673,0.6673,0.6751,0,0.591,0.5961,0.5994,0.6097,0.6152,0.62,0.6292,0.6346,0.6392,0.6431,0.6481,0.651,0.6529,0.6553,0.6542,0.6574,0.6587,0.6595,0.6552,0.6601,0.6632,0.6638,0.6549,0.6548,0.6548,0.6547,0,0,0.5899,0.5971,0.6077,0.6134,0.6168,0.6262,0.6281,0.634,0.6399,0.6409,0.6434,0.6481,0.6481,0.6494,0.6515,0.6532,0.6558,0.6499,0.6584,0.6588,0.6592,0.6623,0.663,0.6546,0.6546,0.6545,0.6545,0,0.5958,0.603,0.6063,0.613,0.6218,0.6263,0.6282,0.6354,0.638,0.6419,0.6417,0.6439,0.6468,0.6467,0.647,0.6521,0.6517,0.6549,0.6536,0.6578,0.6583,0.6587,0.6619,0.6625,0.6543,0.6544,0.6544,0,0.5985,0.6057,0.6075,0.6173,0.6217,0.6261,0.6282,0.6338,0.6361,0.6351,0.6376,0.6395,0.6397,0.6427,0.6438,0.6417,0.6473,0.6451,0.6456,0.642,0.6459,0.6466,0.6472,0.639,0.639,0.6389,0,0,0.6019,0.6075,0.615,0.6181,0.6215,0.6265,0.6292,0.632,0.635,0.6362,0.6364,0.6369,0.6384,0.6383,0.6398,0.6411,0.6409,0.6432,0.6439,0.6445,0.6414,0.6454,0.6461,0.6387,0.6387,0.6387,0,0,0.6023,0.6119,0.6133,0.6176,0.6233,0.6293,0.6317,0.6334,0.6357,0.6351,0.6339,0.6338,0.6365,0.6355,0.6329,0.6385,0.6357,0.6361,0.6381,0.6389,0.6397,0.6355,0.6302,0,0,0,0,0,0.6089,0.6112,0.6123,0.6137,0.6216,0.6286,0.6297,0.6328,0.6319,0.6347,0.6345,0.6324,0.6351,0.6328,0.6325,0.6348,0.636,0.6365,0.6369,0.6399,0.6409,0.6417,0,0,0,0,0,0,0.6095,0.6112,0.6123,0.6181,0.6199,0.6285,0.6276,0.6285,0.6318,0.632,0.6326,0.6324,0.6316,0.6327,0.6325,0.6348,0.6302,0.6362,0.6366,0.637,0.6403,0.641,0.6417,0,0,0,0,0,0.6099,0.6113,0.6232,0.6181,0.6197,0.6245,0.6275,0.6283,0.631,0.6309,0.6309,0.6333,0.6316,0.6314,0.6326,0.635,0.6303,0.6303,0.6364,0.6368,0.6371,0.6406,0,0,0,0,0,0,0.6103,0.6117,0.6236,0.6242,0.6175,0.6242,0.6254,0.6281,0.6296,0.6299,0.6313,0.6314,0.6316,0.6315,0.6313,0.6352,0.6304,0.6304,0.6303,0.6367,0.6369,0.6372,0,0,0,0,0,0,0.611,0.6122,0.6239,0.623,0.6235,0.6239,0.6249,0.6244,0.6293,0.6298,0.6301,0.6313,0.6297,0.6315,0.6314,0.6307,0.6305,0.6304,0.6304,0.6304,0.6369,0.6371,0,0,0,0,0,0,0.6116,0.6126,0.6229,0.6232,0.6237,0.6302,0.6231,0.6296,0.6331,0.6295,0.633,0.633,0.6296,0.6297,0.6315,0.6308,0.6307,0.6305,0.6304,0.6304,0.6304,0,0,0,0,0,0,0,0.612,0.6046,0.6204,0.6234,0.6238,0.6295,0.6296,0.6298,0.6331,0.6331,0.633,0.633,0.6308,0.6307,0.6307,0.6309,0,0,0.6305,0.6305,0,0,0,0,0,0,0,0,0.6042,0.6045,0.6204,0.6205,0.6206,0.6295,0.6296,0.6297,0.6331,0.6331,0.633,0.633,0.6308,0.6307,0.6307,0,0,0,0,0,0,0,0,0,0,0,0,0,0,0,0.6204,0.6205,0,0.6295,0.6296,0.6297,0.6331,0.6331,0.633,0.633,0.6308,0.6307,0.6307,0,0,0,0,0,0,0,0,0,0,0,0,0,0,0,0,0,0,0,0,0,0,0,0,0,0,0,0,0,0,0,0,0,0,0,0,0,0,0,0,0,0,0,0,0,0,0,0,0,0,0,0,0,0,0,0,0,0,0,0,0,0,0,0,0,0,0,0,0]}],[{"header":{"parameterUnit":"kt","parameterCategory":2,"dx":1,"dy":1,"la1":30.253999710083008,"la2":30.299108505249023,"lo1":-89.0895004272461,"lo2":-89.04439544677734,"nx":28,"ny":28,"refTime":"2022-10-24T21:00:00:Z","depth":"0","parameterNumber":3,"parameterNumberName":"V-component_of_CURRENTS"},"data":[0.1436,0.1581,0.1659,0.1959,0.2108,0.2387,0.2563,0.2862,0.3083,0.3338,0.3391,0.3334,0.2583,0.0007,-0.1825,-0.2287,-0.2832,-0.2982,-0.329,-0.2702,-0.2645,-0.259,-0.2635,-0.3151,-0.3153,-0.4049,-0.4058,-0.4066,0.1405,0.1495,0.1634,0.1809,0.1993,0.2047,0.231,0.2507,0.279,0.296,0.3049,0.2715,0.1754,0.0746,-0.066,-0.147,-0.1773,-0.1947,-0.2148,-0.2239,-0.1354,-0.1349,-0.16,-0.1599,-0.1599,-0.1599,-0.1598,-0.1598,0.1333,0.1405,0.1505,0.1645,0.1776,0.197,0.2123,0.2289,0.2485,0.2653,0.2551,0.2551,0.1782,0.0783,0.0188,-0.087,-0.0893,-0.117,-0.1374,-0.1485,-0.1649,-0.0631,-0.0789,-0.0789,-0.0789,-0.079,-0.079,0,0.1257,0.1296,0.1363,0.15,0.1604,0.1735,0.1862,0.1973,0.2025,0.2111,0.2184,0.2112,0.1531,0.104,0.0302,-0.0084,-0.0798,-0.0572,-0.0958,-0.1188,-0.1333,-0.1534,-0.0509,-0.0596,-0.0595,-0.0595,-0.0595,-0.0594,0.116,0.1214,0.1295,0.1359,0.1383,0.1489,0.1567,0.158,0.1678,0.1688,0.1749,0.1527,0.1435,0.0833,0.029,-0.0221,-0.0562,-0.0539,-0.0585,-0.093,-0.1197,-0.1336,-0.146,-0.0587,-0.0588,-0.0589,-0.0589,0,0.1113,0.11,0.1183,0.1215,0.1237,0.1315,0.1398,0.1468,0.1437,0.1519,0.1509,0.1322,0.1072,0.0694,0.0312,0.0034,-0.0492,-0.0407,-0.032,-0.0381,-0.0914,-0.1103,-0.1506,-0.1677,-0.0655,-0.0657,-0.0659,0,0.0992,0.105,0.1045,0.108,0.1179,0.1142,0.1248,0.1217,0.1216,0.128,0.1079,0.109,0.073,0.0534,0.025,-0.007,-0.0046,-0.0337,-0.0412,-0.0364,-0.0365,-0.0751,-0.095,-0.0334,-0.0332,-0.0331,-0.033,0,0.0872,0.0909,0.0976,0.0977,0.097,0.1016,0.1025,0.099,0.1019,0.0949,0.0943,0.078,0.0713,0.0476,0.0187,0.0162,-0.0087,-0.0165,-0.0369,-0.0375,-0.0422,-0.0431,-0.0763,-0.0329,-0.0329,-0.0328,-0.0328,0,0.0738,0.0749,0.0832,0.0836,0.0847,0.0885,0.0904,0.0912,0.0843,0.0793,0.0716,0.0594,0.0503,0.038,0.0147,0.0187,0.0013,-0.0124,-0.0134,-0.0237,-0.0339,-0.0413,-0.0387,-0.075,-0.029,-0.0289,-0.0288,0,0.0612,0.0667,0.0615,0.0694,0.0718,0.064,0.0669,0.0636,0.0578,0.0553,0.0427,0.0389,0.027,0.024,0.016,0.0002,-0.0064,-0.0004,-0.0272,-0.0279,-0.0314,-0.0279,-0.0239,-0.0369,-0.0275,-0.0276,-0.0277,0,0.0498,0.0444,0.0457,0.0468,0.042,0.0431,0.0453,0.0437,0.0452,0.0353,0.036,0.0268,0.0179,0.0139,0.0052,-0.001,-0.005,-0.0107,-0.0115,-0.0155,-0.0211,-0.0257,-0.0271,-0.0117,-0.0118,-0.0118,-0.0267,0,0.0342,0.0343,0.0365,0.0345,0.0338,0.0352,0.0292,0.0278,0.0219,0.016,0.0125,0.0021,-0.004,-0.0071,-0.0126,-0.0132,-0.0187,-0.0247,-0.03,-0.0246,-0.0322,-0.0329,-0.0285,-0.0288,-0.0291,-0.0293,0,0,0.024,0.0239,0.0155,0.0175,0.0172,0.0071,0.0114,0.0074,0.0008,-0.0003,-0.0058,-0.0161,-0.0225,-0.0228,-0.0216,-0.0259,-0.0321,-0.0259,-0.0271,-0.0267,-0.0265,-0.0333,-0.0337,-0.0297,-0.0298,-0.0299,-0.03,0,0.0175,0.0119,0.0143,0.0114,0.007,0.0025,0.0032,-0.0038,-0.0066,-0.0083,-0.0162,-0.0205,-0.0271,-0.0313,-0.0344,-0.0291,-0.039,-0.0316,-0.0215,-0.0289,-0.0283,-0.0278,-0.0342,-0.0344,-0.0306,-0.0305,-0.0305,0,0.0081,0.0036,0.0031,-0.002,-0.0054,-0.0045,-0.0134,-0.0144,-0.0135,-0.0253,-0.025,-0.0321,-0.0396,-0.0405,-0.0414,-0.0442,-0.0455,-0.0442,-0.0432,-0.0418,-0.0499,-0.0491,-0.0483,-0.0577,-0.0577,-0.0577,0,0,0.0037,0.0022,-0.0046,-0.0037,-0.0049,-0.0122,-0.0139,-0.0182,-0.0229,-0.0249,-0.0306,-0.0365,-0.0404,-0.042,-0.0469,-0.0471,-0.0537,-0.0468,-0.0456,-0.0445,-0.0425,-0.0502,-0.0494,-0.0578,-0.0578,-0.0578,0,0,0.0019,-0.0058,-0.0094,-0.0092,-0.0127,-0.0204,-0.0196,-0.0244,-0.0285,-0.0291,-0.0374,-0.0389,-0.0398,-0.0453,-0.0455,-0.0482,-0.0544,-0.0545,-0.0423,-0.0408,-0.0396,-0.0358,-0.0535,0,0,0,0,0,-0.0071,-0.0048,-0.008,-0.0088,-0.0164,-0.019,-0.0202,-0.0262,-0.0294,-0.0287,-0.0341,-0.0393,-0.0475,-0.0478,-0.0491,-0.0464,-0.0589,-0.0587,-0.0586,-0.0432,-0.0416,-0.0402,0,0,0,0,0,0,-0.0074,-0.0085,-0.008,-0.0153,-0.017,-0.0192,-0.0259,-0.0277,-0.0295,-0.0303,-0.0383,-0.0396,-0.0456,-0.0476,-0.0487,-0.046,-0.0532,-0.0589,-0.0587,-0.0585,-0.0426,-0.0413,-0.0402,0,0,0,0,0,-0.0078,-0.0086,-0.0186,-0.0155,-0.017,-0.0244,-0.026,-0.0275,-0.0295,-0.0376,-0.0391,-0.0333,-0.0454,-0.0467,-0.0483,-0.0453,-0.0525,-0.0529,-0.0588,-0.0586,-0.0585,-0.042,0,0,0,0,0,0,-0.008,-0.0115,-0.0191,-0.0199,-0.0156,-0.0244,-0.0259,-0.0273,-0.0369,-0.0382,-0.0331,-0.0336,-0.0453,-0.0464,-0.0473,-0.0445,-0.0519,-0.0523,-0.0525,-0.0587,-0.0585,-0.0585,0,0,0,0,0,0,-0.011,-0.0121,-0.0195,-0.0193,-0.0201,-0.0244,-0.0256,-0.0293,-0.0369,-0.032,-0.0326,-0.0332,-0.043,-0.0461,-0.0469,-0.0526,-0.0514,-0.0518,-0.0521,-0.0523,-0.0586,-0.0585,0,0,0,0,0,0,-0.0116,-0.0125,-0.0192,-0.0198,-0.0205,-0.0299,-0.0279,-0.0351,-0.0371,-0.0315,-0.0373,-0.0373,-0.0425,-0.0435,-0.0465,-0.0519,-0.0524,-0.0515,-0.0517,-0.0519,-0.052,0,0,0,0,0,0,0,-0.0121,-0.0041,-0.0139,-0.0202,-0.0209,-0.0267,-0.0269,-0.0272,-0.0371,-0.0372,-0.0372,-0.0373,-0.0493,-0.0497,-0.0501,-0.0513,0,0,-0.0514,-0.0516,0,0,0,0,0,0,0,0,-0.0039,-0.004,-0.0139,-0.014,-0.0141,-0.0267,-0.0269,-0.0272,-0.0371,-0.0372,-0.0372,-0.0373,-0.0494,-0.0497,-0.0501,0,0,0,0,0,0,0,0,0,0,0,0,0,0,0,-0.0139,-0.014,0,-0.0267,-0.0269,-0.0271,-0.0371,-0.0372,-0.0372,-0.0373,-0.0495,-0.0498,-0.0501,0,0,0,0,0,0,0,0,0,0,0,0,0,0,0,0,0,0,0,0,0,0,0,0,0,0,0,0,0,0,0,0,0,0,0,0,0,0,0,0,0,0,0,0,0,0,0,0,0,0,0,0,0,0,0,0,0,0,0,0,0,0,0,0,0,0,0,0,0]}]],[[{"header":{"parameterUnit":"kt","parameterCategory":2,"dx":1,"dy":1,"la1":30.253999710083008,"la2":30.299108505249023,"lo1":-89.0895004272461,"lo2":-89.04439544677734,"nx":28,"ny":28,"refTime":"2022-10-24T21:00:00:Z","depth":"2","parameterNumber":2,"parameterNumberName":"U-component_of_CURRENTS"},"data":[0.4573,0.4507,0.4499,0.4391,0.4402,0.4297,0.4301,0.4256,0.4323,0.4293,0.4298,0.4653,0.484,0.4134,0.4078,0.3773,0.3978,0.3637,0.5114,0.486,0.4918,0.5084,0.4901,0,0,0,0,0,0.4636,0.4639,0.4656,0.4661,0.4622,0.473,0.4812,0.4754,0.4846,0.5067,0.5241,0.4906,0.4871,0.4923,0.4653,0.4703,0.4551,0.4492,0.4206,0.4285,0.4353,0.4167,0.3593,0.3587,0.358,0.3574,0,0,0.4767,0.4755,0.4799,0.4823,0.4876,0.4906,0.4909,0.5063,0.5227,0.5402,0.5752,0.582,0.5905,0.581,0.5654,0.5532,0.5964,0.5651,0.5665,0.5689,0.5586,0.5514,0.5382,0.5388,0.5393,0.5398,0.5403,0,0.4842,0.4878,0.4917,0.4964,0.502,0.5083,0.5205,0.5277,0.5557,0.5736,0.6006,0.6179,0.6409,0.6272,0.6348,0.6295,0.6183,0.6072,0.6747,0.56,0.5518,0.5526,0.5553,0.5408,0.5415,0.542,0.5423,0.5426,0.4932,0.4944,0.5057,0.5081,0.5153,0.5235,0.5302,0.5521,0.5628,0.5976,0.6041,0.6305,0.647,0.6664,0.6657,0.6685,0.6757,0.6219,0.6061,0.6606,0.6619,0.6612,0.6605,0.55,0.5491,0.5483,0.5477,0,0.4975,0.5076,0.5124,0.5259,0.5298,0.5328,0.5515,0.5586,0.579,0.5958,0.6022,0.6297,0.6473,0.6566,0.6681,0.665,0.6698,0.6691,0.6174,0.6133,0.6608,0.6601,0.6674,0.6675,0.6675,0.6675,0.6675,0,0.5119,0.5137,0.5284,0.5313,0.5348,0.5489,0.5567,0.5691,0.5878,0.5992,0.615,0.6276,0.6398,0.6503,0.6521,0.659,0.6625,0.655,0.6571,0.6126,0.6089,0.6518,0.651,0.6582,0.6581,0.658,0.658,0,0.52,0.5316,0.5348,0.5397,0.5556,0.5593,0.5669,0.5825,0.5914,0.609,0.618,0.6279,0.6366,0.6406,0.6488,0.6461,0.659,0.656,0.6549,0.6548,0.6119,0.608,0.6579,0.6579,0.6579,0.6579,0.6578,0,0.5356,0.5423,0.5473,0.5589,0.5615,0.566,0.5773,0.585,0.6004,0.6091,0.6185,0.6256,0.6321,0.6319,0.6408,0.6396,0.6412,0.6438,0.6443,0.6412,0.6422,0.6005,0.5979,0.6493,0.6492,0.6491,0.649,0,0.5401,0.5481,0.5588,0.5635,0.5679,0.5802,0.5859,0.5942,0.6039,0.6125,0.6179,0.6246,0.6244,0.6285,0.6309,0.6366,0.6378,0.6337,0.6418,0.6419,0.6386,0.6462,0.596,0.5984,0.6479,0.648,0.6481,0,0.5435,0.5627,0.5625,0.5666,0.5803,0.5833,0.5913,0.5982,0.6033,0.6115,0.6167,0.6205,0.6246,0.6252,0.6272,0.6295,0.6359,0.6311,0.6312,0.632,0.6458,0.6448,0.6455,0.6393,0.6394,0.6395,0.6472,0,0.5565,0.562,0.5656,0.5749,0.5802,0.5856,0.5935,0.5999,0.6053,0.6094,0.6162,0.6187,0.6221,0.6248,0.6235,0.6283,0.6295,0.6298,0.6251,0.6309,0.6337,0.6345,0.6244,0.6243,0.6243,0.6242,0,0,0.5541,0.561,0.5704,0.5761,0.5798,0.5885,0.5911,0.597,0.6039,0.6061,0.6085,0.6154,0.6156,0.6177,0.6203,0.6218,0.6246,0.6195,0.6288,0.6293,0.6298,0.6328,0.6336,0.6241,0.624,0.624,0.624,0,0.558,0.5652,0.5688,0.5751,0.5839,0.5877,0.5901,0.5981,0.6018,0.6063,0.6071,0.6104,0.6139,0.6141,0.6144,0.6205,0.6205,0.6242,0.624,0.6281,0.6288,0.6293,0.6323,0.6331,0.6238,0.6238,0.6238,0,0.559,0.5651,0.5675,0.5764,0.5815,0.5858,0.5887,0.5955,0.5983,0.5977,0.6024,0.6048,0.6051,0.6086,0.6103,0.6081,0.6156,0.6131,0.6136,0.6106,0.6145,0.6153,0.6161,0.6062,0.6062,0.6061,0,0,0.5608,0.5663,0.573,0.5768,0.5803,0.5863,0.5898,0.5933,0.5969,0.599,0.6003,0.6019,0.6035,0.6039,0.6056,0.6077,0.6074,0.6109,0.6117,0.6124,0.6098,0.6139,0.6147,0.6058,0.6058,0.6058,0,0,0.5608,0.5693,0.5711,0.5759,0.5815,0.5877,0.5915,0.5942,0.598,0.5986,0.5976,0.5976,0.6014,0.6006,0.5974,0.6049,0.6017,0.6023,0.6041,0.6051,0.606,0.6023,0.5948,0,0,0,0,0,0.5655,0.5682,0.5698,0.5712,0.5799,0.5866,0.5879,0.5925,0.5938,0.5972,0.5979,0.5963,0.5998,0.5968,0.5967,0.6002,0.6025,0.6031,0.6037,0.6068,0.6079,0.6088,0,0,0,0,0,0,0.5661,0.5677,0.5697,0.5756,0.5776,0.5864,0.5868,0.5881,0.5936,0.5942,0.5963,0.5962,0.5951,0.5968,0.5967,0.6001,0.5948,0.6028,0.6033,0.6037,0.6071,0.608,0.6088,0,0,0,0,0,0.5665,0.5679,0.5807,0.5756,0.5773,0.5839,0.5868,0.5879,0.5932,0.5926,0.593,0.5968,0.5951,0.595,0.5967,0.6003,0.5949,0.5948,0.6031,0.6035,0.6038,0.6076,0,0,0,0,0,0,0.5669,0.5693,0.5811,0.5818,0.5754,0.5837,0.5851,0.5877,0.5913,0.5919,0.5925,0.5927,0.595,0.595,0.595,0.6005,0.5949,0.5949,0.5948,0.6034,0.6037,0.604,0,0,0,0,0,0,0.5685,0.5698,0.5815,0.5809,0.5816,0.5834,0.5847,0.5843,0.591,0.5909,0.5914,0.5925,0.5926,0.595,0.595,0.5944,0.5949,0.5949,0.5949,0.5949,0.6036,0.6039,0,0,0,0,0,0,0.5692,0.5703,0.5808,0.5813,0.5819,0.5904,0.5828,0.59,0.5953,0.5905,0.5954,0.5954,0.5923,0.5925,0.595,0.5944,0.5944,0.5949,0.5949,0.5949,0.5949,0,0,0,0,0,0,0,0.5697,0.5611,0.5768,0.5816,0.5822,0.5884,0.5886,0.5888,0.5953,0.5954,0.5954,0.5954,0.5951,0.5951,0.595,0.5944,0,0,0.5949,0.5949,0,0,0,0,0,0,0,0,0.5608,0.561,0.5768,0.5769,0.5771,0.5884,0.5886,0.5887,0.5953,0.5954,0.5954,0.5954,0.5951,0.5951,0.595,0,0,0,0,0,0,0,0,0,0,0,0,0,0,0,0.5768,0.5769,0,0.5884,0.5886,0.5887,0.5953,0.5954,0.5954,0.5954,0.5951,0.5951,0.595,0,0,0,0,0,0,0,0,0,0,0,0,0,0,0,0,0,0,0,0,0,0,0,0,0,0,0,0,0,0,0,0,0,0,0,0,0,0,0,0,0,0,0,0,0,0,0,0,0,0,0,0,0,0,0,0,0,0,0,0,0,0,0,0,0,0,0,0,0]}],[{"header":{"parameterUnit":"kt","parameterCategory":2,"dx":1,"dy":1,"la1":30.253999710083008,"la2":30.299108505249023,"lo1":-89.0895004272461,"lo2":-89.04439544677734,"nx":28,"ny":28,"refTime":"2022-10-24T21:00:00:Z","depth":"2","parameterNumber":3,"parameterNumberName":"V-component_of_CURRENTS"},"data":[0.1557,0.1699,0.1776,0.2071,0.2218,0.2492,0.2663,0.2912,0.3045,0.3145,0.3065,0.2887,0.2056,0.1346,0.0553,-0.0021,-0.0153,-0.0151,-0.0056,0.016,0.0172,-0.0384,-0.0293,0,0,0,0,0,0.1528,0.1614,0.1751,0.1923,0.2106,0.216,0.2418,0.2591,0.2848,0.2918,0.2967,0.2426,0.1838,0.1132,0.0143,-0.0434,-0.048,-0.0636,-0.0541,-0.0533,-0.0528,-0.048,-0.0595,-0.0597,-0.0599,-0.0601,0,0,0.1457,0.1527,0.1625,0.1761,0.1892,0.2084,0.2233,0.2389,0.2572,0.2697,0.2599,0.249,0.1907,0.0994,0.037,-0.0315,-0.0288,-0.0512,-0.0506,-0.0501,-0.0454,-0.0414,-0.0561,-0.0561,-0.0562,-0.0563,-0.0563,0,0.1383,0.142,0.1486,0.162,0.1723,0.1853,0.1979,0.2087,0.2136,0.2211,0.2274,0.2194,0.1627,0.1134,0.0411,0.0066,-0.0286,-0.0388,-0.0377,-0.0295,-0.0249,-0.03,-0.0291,-0.0373,-0.0373,-0.0373,-0.0373,-0.0372,0.1289,0.1342,0.1421,0.1483,0.1507,0.1611,0.1688,0.1701,0.1797,0.1802,0.1861,0.1638,0.1537,0.0945,0.0419,-0.0083,-0.0155,-0.0364,-0.0402,-0.0363,-0.0419,-0.0407,-0.0396,-0.037,-0.037,-0.037,-0.0371,0,0.1244,0.1231,0.1312,0.1344,0.1366,0.144,0.1524,0.1592,0.156,0.1639,0.1627,0.1442,0.1191,0.0819,0.0441,0.017,-0.0142,-0.0263,-0.0146,-0.02,-0.0387,-0.0379,-0.0503,-0.0506,-0.0508,-0.051,-0.0512,0,0.1128,0.1184,0.1182,0.1216,0.131,0.1276,0.1376,0.1346,0.1343,0.1405,0.1206,0.1215,0.086,0.0666,0.0387,0.0072,0.0093,-0.0189,-0.0259,-0.0185,-0.0183,-0.0205,-0.0205,-0.0187,-0.0186,-0.0185,-0.0184,0,0.1018,0.1053,0.1116,0.1118,0.1115,0.1156,0.1164,0.1129,0.1156,0.1085,0.108,0.0912,0.0845,0.061,0.0328,0.0307,0.0057,-0.0015,-0.0215,-0.022,-0.0235,-0.024,-0.0182,-0.0182,-0.0182,-0.0182,-0.0181,0,0.0894,0.0907,0.0982,0.0992,0.1002,0.1036,0.1053,0.1057,0.0987,0.094,0.086,0.0744,0.0644,0.053,0.0294,0.0337,0.0166,0.0034,0.0023,-0.0069,-0.0159,-0.0208,-0.0192,-0.0126,-0.0124,-0.0123,-0.0122,0,0.0781,0.0832,0.0789,0.086,0.0883,0.0812,0.0835,0.0801,0.0746,0.0719,0.0592,0.0554,0.0437,0.0407,0.0322,0.017,0.0098,0.0161,-0.0093,-0.01,-0.0133,-0.0114,-0.0044,-0.0173,-0.0108,-0.0109,-0.011,0,0.0681,0.0638,0.065,0.0662,0.0617,0.0629,0.0642,0.0624,0.0634,0.0535,0.0537,0.0441,0.0356,0.0317,0.0231,0.0164,0.0115,0.0077,0.007,0.0028,-0.0046,-0.009,-0.0105,0.0053,0.0052,0.0051,-0.0099,0,0.0548,0.055,0.0569,0.0554,0.0547,0.0557,0.0501,0.0483,0.0425,0.0368,0.0327,0.0227,0.0166,0.013,0.008,0.0061,0.0013,-0.0041,-0.0087,-0.0045,-0.012,-0.0128,-0.0066,-0.0069,-0.0071,-0.0072,0,0,0.0458,0.0462,0.0391,0.0409,0.0405,0.0311,0.0347,0.0307,0.024,0.0226,0.0176,0.0071,0.0007,-0.0005,0.0002,-0.0038,-0.0096,-0.004,-0.0063,-0.0062,-0.0061,-0.0128,-0.0134,-0.0076,-0.0077,-0.0078,-0.0078,0,0.0407,0.0358,0.0381,0.0355,0.0314,0.0272,0.0276,0.0208,0.0177,0.0157,0.008,0.0033,-0.003,-0.0075,-0.0105,-0.0064,-0.0156,-0.009,-0.0004,-0.0079,-0.0074,-0.0071,-0.0135,-0.0139,-0.0083,-0.0083,-0.0083,0,0.0326,0.029,0.0285,0.0242,0.0209,0.0215,0.0131,0.0116,0.012,0.0012,0.0003,-0.0065,-0.0134,-0.0148,-0.0161,-0.0185,-0.0213,-0.0196,-0.0187,-0.0173,-0.0253,-0.0248,-0.0242,-0.0309,-0.0309,-0.0309,0,0,0.0291,0.0281,0.0221,0.0228,0.0216,0.0145,0.0127,0.0083,0.0037,0.0014,-0.0043,-0.0102,-0.014,-0.0158,-0.0205,-0.0212,-0.0273,-0.0217,-0.0207,-0.0197,-0.0178,-0.0255,-0.025,-0.031,-0.031,-0.031,0,0,0.0275,0.021,0.0176,0.0179,0.0145,0.0073,0.0076,0.0028,-0.0016,-0.0026,-0.0104,-0.0119,-0.0134,-0.0184,-0.0183,-0.0221,-0.0273,-0.0274,-0.0168,-0.0156,-0.0146,-0.011,-0.0258,0,0,0,0,0,0.02,0.0221,0.0191,0.0183,0.0112,0.0089,0.0076,0.0015,-0.0022,-0.0018,-0.0072,-0.0122,-0.0203,-0.0203,-0.0216,-0.0201,-0.0317,-0.0316,-0.0315,-0.0183,-0.0169,-0.0158,0,0,0,0,0,0,0.0197,0.0188,0.019,0.0123,0.0107,0.0086,0.002,0.0002,-0.0023,-0.0031,-0.0111,-0.0125,-0.0179,-0.0201,-0.0212,-0.0196,-0.0255,-0.0317,-0.0316,-0.0315,-0.0178,-0.0167,-0.0158,0,0,0,0,0,0.0194,0.0187,0.0094,0.0121,0.0107,0.0032,0.0019,0.0004,-0.0023,-0.0098,-0.0113,-0.0064,-0.0177,-0.019,-0.0208,-0.0189,-0.0248,-0.0252,-0.0316,-0.0315,-0.0314,-0.0173,0,0,0,0,0,0,0.0192,0.0158,0.0089,0.0082,0.0118,0.0031,0.0017,0.0006,-0.009,-0.0104,-0.0054,-0.0059,-0.0176,-0.0186,-0.0196,-0.0183,-0.0243,-0.0246,-0.0249,-0.0315,-0.0315,-0.0314,0,0,0,0,0,0,0.0162,0.0152,0.0085,0.0085,0.0077,0.0031,0.0019,-0.0016,-0.009,-0.0043,-0.0049,-0.0055,-0.0154,-0.0184,-0.0191,-0.0244,-0.0238,-0.0242,-0.0244,-0.0246,-0.0315,-0.0314,0,0,0,0,0,0,0.0156,0.0147,0.0086,0.008,0.0072,-0.0021,-0.0002,-0.0069,-0.0094,-0.0038,-0.0096,-0.0097,-0.0149,-0.0159,-0.0188,-0.0237,-0.0242,-0.0238,-0.0241,-0.0243,-0.0244,0,0,0,0,0,0,0,0.0151,0.0228,0.0141,0.0075,0.0068,0.0015,0.0012,0.0009,-0.0094,-0.0095,-0.0096,-0.0097,-0.0218,-0.0222,-0.0226,-0.0231,0,0,-0.0238,-0.024,0,0,0,0,0,0,0,0,0.023,0.0229,0.0141,0.0139,0.0138,0.0014,0.0012,0.001,-0.0094,-0.0095,-0.0096,-0.0097,-0.0219,-0.0222,-0.0225,0,0,0,0,0,0,0,0,0,0,0,0,0,0,0,0.014,0.014,0,0.0014,0.0012,0.001,-0.0094,-0.0095,-0.0096,-0.0096,-0.022,-0.0222,-0.0225,0,0,0,0,0,0,0,0,0,0,0,0,0,0,0,0,0,0,0,0,0,0,0,0,0,0,0,0,0,0,0,0,0,0,0,0,0,0,0,0,0,0,0,0,0,0,0,0,0,0,0,0,0,0,0,0,0,0,0,0,0,0,0,0,0,0,0,0,0]}]],[[{"header":{"parameterUnit":"kt","parameterCategory":2,"dx":1,"dy":1,"la1":30.253999710083008,"la2":30.299108505249023,"lo1":-89.0895004272461,"lo2":-89.04439544677734,"nx":28,"ny":28,"refTime":"2022-10-24T21:00:00:Z","depth":"4","parameterNumber":2,"parameterNumberName":"U-component_of_CURRENTS"},"data":[0.2739,0.2802,0.2792,0.2721,0.2721,0.2823,0.2937,0.3131,0.312,0.3427,0.3498,0.3734,0.388,0.408,0.4021,0.4062,0.399,0.4468,0.4457,0.4511,0.4541,0.4567,0.4426,0,0,0,0,0,0.281,0.2796,0.2871,0.2935,0.3058,0.314,0.3344,0.3476,0.3754,0.3702,0.3876,0.3984,0.4057,0.4218,0.4098,0.4449,0.451,0.4289,0.4315,0.453,0.4562,0.4415,0,0,0,0,0,0,0.2906,0.293,0.3066,0.3158,0.3304,0.3331,0.3458,0.3565,0.3697,0.4056,0.4087,0.4351,0.461,0.4572,0.4613,0.4575,0.449,0.4302,0.4344,0.4377,0.422,0.4088,0.3841,0,0,0,0,0,0.2974,0.3095,0.319,0.3331,0.3467,0.3578,0.3766,0.3805,0.4101,0.4368,0.4453,0.4518,0.4655,0.4734,0.4768,0.4755,0.4958,0.4863,0.4878,0.4765,0.4707,0.4674,0.4682,0.4684,0.4689,0.4691,0.4693,0,0.3088,0.3143,0.3386,0.3459,0.3589,0.3767,0.3877,0.415,0.4254,0.4596,0.4638,0.4878,0.5014,0.4924,0.5087,0.5075,0.5019,0.4949,0.4829,0.4758,0.4717,0.4718,0.4717,0.4719,0.4717,0.4714,0.4712,0,0.3145,0.3297,0.3417,0.3643,0.3725,0.3822,0.4093,0.4187,0.4445,0.4615,0.4701,0.4967,0.5098,0.5215,0.5315,0.5174,0.5144,0.507,0.5338,0.5307,0.477,0.4759,0.4761,0.4752,0.4744,0.4737,0.4732,0,0.3281,0.337,0.3582,0.3629,0.3768,0.3923,0.4102,0.4258,0.4485,0.4603,0.4819,0.4925,0.5106,0.5204,0.5223,0.5154,0.5329,0.5001,0.4957,0.5191,0.5179,0.5132,0.5112,0.5301,0.53,0.53,0.5299,0,0.3314,0.3496,0.3611,0.3666,0.3852,0.3972,0.4098,0.4302,0.4428,0.4664,0.4765,0.4937,0.5055,0.5111,0.5187,0.5158,0.529,0.5232,0.4978,0.4958,0.5121,0.5102,0.5299,0.5299,0.5298,0.5298,0.5298,0,0.3412,0.349,0.3631,0.3774,0.3813,0.3924,0.4118,0.4256,0.4461,0.4579,0.4739,0.4811,0.4979,0.4951,0.5097,0.5065,0.5078,0.5085,0.5087,0.4765,0.4663,0.4863,0.5059,0.5057,0.5055,0.5053,0.5052,0,0.3403,0.3515,0.3596,0.3724,0.3774,0.3904,0.4037,0.4178,0.432,0.4454,0.4581,0.4718,0.4744,0.4822,0.4893,0.4936,0.4992,0.4933,0.4924,0.4923,0.4642,0.4754,0.4957,0.5026,0.503,0.5032,0.5034,0,0.3347,0.3482,0.3504,0.356,0.3709,0.3742,0.3923,0.4063,0.4167,0.432,0.4455,0.4635,0.4666,0.4719,0.4757,0.4814,0.4948,0.4786,0.4784,0.4793,0.5043,0.4758,0.4745,0.4942,0.4945,0.4947,0.5016,0,0.3351,0.343,0.3463,0.3558,0.3624,0.3709,0.3805,0.391,0.4023,0.4092,0.4282,0.4363,0.4476,0.4528,0.4554,0.4697,0.4664,0.4623,0.454,0.4673,0.4684,0.4698,0.448,0.4476,0.4474,0.4472,0,0,0.33,0.3351,0.3375,0.3435,0.3502,0.3567,0.3647,0.3723,0.3851,0.3926,0.396,0.4161,0.4221,0.4368,0.4445,0.4456,0.4463,0.4448,0.4609,0.4625,0.4639,0.4657,0.4673,0.4467,0.4466,0.4465,0.4464,0,0.3259,0.3299,0.3347,0.3394,0.3492,0.3524,0.3569,0.3643,0.3727,0.3871,0.391,0.4026,0.4148,0.4206,0.4252,0.441,0.4369,0.4443,0.4542,0.4585,0.4605,0.4621,0.4643,0.466,0.4458,0.4458,0.4458,0,0.3216,0.3253,0.328,0.3343,0.3386,0.3448,0.3455,0.3548,0.3641,0.3646,0.3805,0.386,0.3918,0.405,0.4117,0.4075,0.427,0.4218,0.4232,0.4221,0.4259,0.4282,0.4303,0.4033,0.4032,0.4031,0,0,0.3199,0.3239,0.3284,0.3336,0.3363,0.342,0.3466,0.352,0.3593,0.364,0.3704,0.3788,0.3875,0.3938,0.3993,0.4099,0.4075,0.4169,0.4189,0.4206,0.4205,0.4247,0.427,0.4027,0.4026,0.4026,0,0,0.3183,0.323,0.3262,0.331,0.3367,0.3396,0.3454,0.3497,0.3593,0.364,0.3671,0.3695,0.3848,0.3844,0.3788,0.3986,0.3899,0.3911,0.4003,0.4028,0.4047,0.4034,0.3745,0,0,0,0,0,0.3183,0.3215,0.3243,0.3259,0.3324,0.3371,0.3383,0.3457,0.3501,0.3543,0.3634,0.3621,0.383,0.378,0.3792,0.3888,0.3973,0.3982,0.3991,0.4134,0.416,0.4182,0,0,0,0,0,0,0.3189,0.3201,0.3243,0.3266,0.3285,0.3368,0.3385,0.3402,0.3499,0.3513,0.3602,0.3619,0.3628,0.3773,0.3784,0.3876,0.3741,0.3976,0.3984,0.3992,0.4143,0.4164,0.4182,0,0,0,0,0,0.3194,0.3204,0.3295,0.3267,0.3282,0.3382,0.3386,0.3402,0.3485,0.353,0.3551,0.3556,0.3624,0.3642,0.3779,0.3873,0.3733,0.3738,0.3982,0.3988,0.3994,0.4153,0,0,0,0,0,0,0.3198,0.3197,0.33,0.3309,0.3297,0.3382,0.3396,0.3401,0.3499,0.352,0.3477,0.3485,0.362,0.3635,0.3648,0.3874,0.3727,0.3731,0.3734,0.3986,0.3991,0.3996,0,0,0,0,0,0,0.3194,0.3202,0.3304,0.3336,0.3349,0.3382,0.3394,0.3428,0.35,0.3438,0.3449,0.348,0.3631,0.363,0.3641,0.3687,0.3722,0.3726,0.3729,0.3731,0.3991,0.3994,0,0,0,0,0,0,0.3199,0.3207,0.3334,0.3343,0.3354,0.3443,0.3415,0.3491,0.3496,0.3432,0.3505,0.3509,0.3627,0.3637,0.3635,0.3676,0.3684,0.3722,0.3725,0.3727,0.3728,0,0,0,0,0,0,0,0.3203,0.3131,0.3266,0.3348,0.3358,0.339,0.339,0.3391,0.3497,0.3501,0.3504,0.3508,0.3699,0.3703,0.3708,0.3667,0,0,0.3722,0.3724,0,0,0,0,0,0,0,0,0.313,0.3131,0.3267,0.3269,0.3272,0.339,0.339,0.3391,0.3498,0.3501,0.3504,0.3506,0.37,0.3704,0.3707,0,0,0,0,0,0,0,0,0,0,0,0,0,0,0,0.3267,0.3269,0,0.339,0.339,0.3391,0.3498,0.3501,0.3503,0.3505,0.3701,0.3704,0.3707,0,0,0,0,0,0,0,0,0,0,0,0,0,0,0,0,0,0,0,0,0,0,0,0,0,0,0,0,0,0,0,0,0,0,0,0,0,0,0,0,0,0,0,0,0,0,0,0,0,0,0,0,0,0,0,0,0,0,0,0,0,0,0,0,0,0,0,0,0]}],[{"header":{"parameterUnit":"kt","parameterCategory":2,"dx":1,"dy":1,"la1":30.253999710083008,"la2":30.299108505249023,"lo1":-89.0895004272461,"lo2":-89.04439544677734,"nx":28,"ny":28,"refTime":"2022-10-24T21:00:00:Z","depth":"4","parameterNumber":3,"parameterNumberName":"V-component_of_CURRENTS"},"data":[0.1221,0.1337,0.1395,0.1589,0.1703,0.1886,0.1978,0.2003,0.1991,0.1973,0.1729,0.1607,0.1139,0.1416,0.0666,0.0563,0.0384,-0.0091,-0.0099,-0.0344,-0.0339,-0.0335,-0.0247,0,0,0,0,0,0.1209,0.1277,0.1399,0.1535,0.1693,0.1788,0.192,0.196,0.1997,0.1977,0.194,0.1695,0.1209,0.1004,0.0667,0.0543,0.0087,0.0131,-0.007,-0.0341,-0.0335,-0.0252,0,0,0,0,0,0,0.1182,0.124,0.1341,0.146,0.1606,0.1743,0.1796,0.1874,0.1931,0.1908,0.1894,0.1596,0.1428,0.0931,0.0607,0.0271,0.0168,0.0042,0.0027,0.0028,0.015,0.0257,0.0222,0,0,0,0,0,0.1132,0.1185,0.1249,0.1385,0.1492,0.1614,0.173,0.1787,0.1825,0.1822,0.1767,0.1513,0.1253,0.0859,0.05,0.0169,-0.01,-0.0205,-0.0205,-0.0229,-0.0184,-0.0216,-0.0203,-0.0314,-0.0313,-0.0313,-0.0313,0,0.1078,0.1127,0.1228,0.1291,0.1328,0.1436,0.1511,0.1541,0.161,0.1603,0.1633,0.1442,0.1291,0.0832,0.049,0.0032,-0.0043,-0.0189,-0.0213,-0.0173,-0.0209,-0.0197,-0.0186,-0.0308,-0.0309,-0.0309,-0.0309,0,0.1053,0.1061,0.114,0.119,0.1222,0.1293,0.139,0.1445,0.1432,0.1484,0.1477,0.1314,0.1087,0.0782,0.0452,0.0246,-0.0019,-0.0118,0.0023,-0.0017,-0.0183,-0.0173,-0.0301,-0.0302,-0.0304,-0.0305,-0.0306,0,0.0978,0.1035,0.1062,0.1095,0.1181,0.1168,0.1258,0.1237,0.1243,0.1284,0.1133,0.1126,0.0838,0.0666,0.0432,0.0169,0.0171,-0.0038,-0.0088,0.0007,0.0015,-0.0023,-0.0017,-0.0063,-0.0062,-0.0061,-0.006,0,0.0917,0.0954,0.1009,0.1017,0.103,0.107,0.1085,0.106,0.1085,0.1029,0.1038,0.0881,0.0831,0.0626,0.0392,0.0383,0.015,0.0105,-0.0046,-0.0049,-0.0015,-0.001,-0.0059,-0.0059,-0.0058,-0.0058,-0.0057,0,0.0838,0.0856,0.0914,0.0943,0.0954,0.0982,0.1006,0.1003,0.0947,0.0923,0.0857,0.0777,0.0667,0.0594,0.0373,0.0423,0.028,0.0171,0.0162,0.0134,0.0085,0.0071,0.0048,0.0049,0.0051,0.0052,0.0053,0,0.0772,0.0811,0.0794,0.0849,0.0871,0.0834,0.0843,0.0818,0.0787,0.0773,0.0666,0.0642,0.0551,0.0535,0.0443,0.0324,0.0241,0.0307,0.0122,0.0117,0.0108,0.0081,0.0218,0.0073,0.0071,0.0069,0.0068,0,0.0718,0.0711,0.0724,0.0743,0.0719,0.0731,0.0727,0.0713,0.0723,0.0657,0.066,0.0563,0.0517,0.0484,0.0415,0.0342,0.0265,0.0297,0.0292,0.0243,0.0118,0.0106,0.0092,0.0225,0.0224,0.0222,0.0082,0,0.0648,0.0665,0.0678,0.0678,0.0678,0.0685,0.0648,0.0642,0.0617,0.0582,0.0547,0.0472,0.0431,0.0393,0.0355,0.0306,0.0285,0.0257,0.0235,0.0236,0.0173,0.0163,0.0278,0.0277,0.0276,0.0276,0,0,0.0602,0.0617,0.0589,0.0601,0.0603,0.0553,0.0575,0.0549,0.0515,0.0507,0.049,0.0415,0.0366,0.0323,0.0318,0.0292,0.0252,0.0299,0.0242,0.0239,0.0235,0.0176,0.0167,0.0275,0.0274,0.0274,0.0274,0,0.0574,0.0565,0.0584,0.0573,0.0554,0.053,0.0534,0.0502,0.049,0.0477,0.0432,0.0392,0.0357,0.031,0.0283,0.0286,0.0234,0.0276,0.031,0.0239,0.0236,0.0234,0.0175,0.0167,0.0272,0.0272,0.0272,0,0.0531,0.0517,0.0523,0.0506,0.0493,0.0495,0.0457,0.0452,0.0451,0.0397,0.0398,0.0357,0.0308,0.0285,0.0274,0.0264,0.0212,0.0241,0.0243,0.0261,0.0186,0.0184,0.0182,0.0207,0.0207,0.0207,0,0,0.0511,0.0518,0.0485,0.0497,0.0492,0.046,0.0453,0.0433,0.0409,0.0403,0.0376,0.0342,0.0309,0.0294,0.0266,0.0246,0.0207,0.0235,0.0238,0.024,0.0259,0.0186,0.0184,0.0206,0.0206,0.0206,0,0,0.0497,0.0471,0.046,0.047,0.0453,0.0414,0.0422,0.0402,0.0386,0.0385,0.0342,0.0334,0.0318,0.0292,0.0296,0.0253,0.0238,0.0237,0.0273,0.0276,0.0279,0.0309,0.0258,0,0,0,0,0,0.0456,0.0473,0.0464,0.0461,0.0433,0.0418,0.0413,0.0391,0.0381,0.0391,0.0362,0.0337,0.0283,0.0286,0.0277,0.0271,0.0205,0.0206,0.0206,0.0248,0.0252,0.0255,0,0,0,0,0,0,0.0455,0.0452,0.0463,0.0426,0.0419,0.0417,0.039,0.0384,0.038,0.0379,0.0342,0.0336,0.0304,0.0288,0.0281,0.0275,0.026,0.0206,0.0206,0.0206,0.0249,0.0252,0.0255,0,0,0,0,0,0.0453,0.0451,0.0418,0.0425,0.0419,0.039,0.039,0.0385,0.0386,0.0338,0.0332,0.0373,0.0305,0.0297,0.0283,0.0279,0.0265,0.0263,0.0206,0.0206,0.0206,0.0251,0,0,0,0,0,0,0.0452,0.0442,0.0415,0.0412,0.0428,0.039,0.0386,0.0386,0.0345,0.0339,0.0365,0.0364,0.0305,0.0299,0.0293,0.0282,0.0269,0.0266,0.0265,0.0206,0.0206,0.0206,0,0,0,0,0,0,0.0443,0.0439,0.0413,0.0418,0.0415,0.039,0.0387,0.036,0.0344,0.0374,0.0372,0.0365,0.0312,0.03,0.0296,0.0254,0.0272,0.027,0.0268,0.0267,0.0206,0.0206,0,0,0,0,0,0,0.044,0.0437,0.0419,0.0417,0.0414,0.0373,0.0365,0.0338,0.0352,0.0376,0.0353,0.0353,0.0313,0.0308,0.0297,0.0258,0.0255,0.0272,0.027,0.0269,0.0268,0,0,0,0,0,0,0,0.0439,0.047,0.0436,0.0415,0.0413,0.0379,0.0378,0.0377,0.0352,0.0353,0.0353,0.0353,0.0286,0.0284,0.0281,0.0261,0,0,0.0272,0.0271,0,0,0,0,0,0,0,0,0.047,0.047,0.0436,0.0435,0.0435,0.0379,0.0378,0.0377,0.0352,0.0353,0.0353,0.0353,0.0286,0.0283,0.0281,0,0,0,0,0,0,0,0,0,0,0,0,0,0,0,0.0436,0.0435,0,0.0379,0.0378,0.0377,0.0352,0.0353,0.0353,0.0353,0.0285,0.0283,0.0281,0,0,0,0,0,0,0,0,0,0,0,0,0,0,0,0,0,0,0,0,0,0,0,0,0,0,0,0,0,0,0,0,0,0,0,0,0,0,0,0,0,0,0,0,0,0,0,0,0,0,0,0,0,0,0,0,0,0,0,0,0,0,0,0,0,0,0,0,0]}]]]